Flag for Australia Weather past 2 weeks in Alice Springs, Northern Territory, Australia

Now
100 °F

Sunny.


Feels Like: 96 °F
Forecast: 76 / 101 °F
Wind: 18 mph from East

Location: Alice Springs Aerodrome

Current Time: Mar 3, 2015 at 12:54:41 PM

Latest Report: Mar 3, 2015 at 12:30 PM


Visibility: 10 mi

Pressure: 29.89 "Hg

Humidity: 14%

Dew point: 43 °F

Location of Alice SpringsLocation

Historic Weather in Alice Springs — Graph

°F

Alice Springs temperature yesterday

Maximum temperature yesterday: 102 °F (at 3:30 PM)
Minimum temperature yesterday: 75 °F (at 6:30 AM)
Average temperature yesterday: 89 °F

Past Weeks' High & Low Weather Summary

 TemperatureHumidityPressure
High104 °F (Feb 28, 1:30 PM)78% (Feb 23, 5:30 AM)30.04 "Hg (Feb 23, 5:30 AM)
Low66 °F (Feb 21, 6:00 AM)9% (Feb 28, 11:00 AM)29.68 "Hg (Feb 27, 4:30 PM)
Average87 °F30%29.85 "Hg
* Reported Feb 16 11:30 AM — Mar 3 11:30 AM, Alice Springs, Weather by CustomWeather, © 2015

Note: Actual official high and low records may vary slightly from our data, if they occured in-between our weather recording intervals... More about our weather records

Advertising

Alice Springs weather history for previous 24 hours

 ConditionsComfort  
Time TempWeatherWind HumidityBarometerVisibility
11:30 AM
Tue, Mar 3
97 °FSunny.18 mph17%29.89 "Hg10 mi
11:00 AM97 °FSunny.17 mph17%29.92 "Hg10 mi
10:30 AM97 °FSunny.18 mph17%29.92 "Hg10 mi
10:00 AM93 °FSunny.17 mph19%29.92 "Hg10 mi
9:30 AM93 °FSunny.18 mph17%29.92 "Hg10 mi
9:00 AM91 °FSunny.17 mph21%29.92 "Hg10 mi
8:30 AM88 °FSunny.13 mph24%29.89 "Hg10 mi
8:00 AM86 °FSunny.8 mph25%29.89 "Hg10 mi
7:30 AM82 °FSunny.6 mph30%29.89 "Hg10 mi
6:30 AM75 °FSunny.5 mph44%29.86 "Hg10 mi
5:30 AM75 °FClear.6 mph44%29.86 "HgN/A
4:30 AM73 °FClear.6 mph47%29.83 "HgN/A
3:30 AM77 °FClear.6 mph42%29.83 "HgN/A
3:00 AM77 °FClear.7 mph42%29.83 "HgN/A
2:30 AM79 °FClear.1 mph42%29.83 "HgN/A
2:00 AM79 °FClear.5 mph42%29.83 "HgN/A
1:30 AM82 °FClear.5 mph35%29.83 "HgN/A
12:30 AM84 °FClear.6 mph33%29.83 "HgN/A
12:00 AM86 °FClear.7 mph27%29.86 "HgN/A
11:30 PM
Mon, Mar 2
86 °FClear.7 mph25%29.86 "HgN/A
11:00 PM86 °FClear.7 mph25%29.83 "HgN/A
10:30 PM84 °FClear.8 mph29%29.83 "HgN/A
10:00 PM86 °FClear.7 mph25%29.83 "HgN/A
9:30 PM88 °FClear.7 mph24%29.83 "HgN/A
9:00 PM88 °FClear.7 mph25%29.80 "HgN/A
8:30 PM90 °FClear.8 mph22%29.80 "HgN/A
8:00 PM91 °FClear.7 mph21%29.80 "HgN/A
7:30 PM93 °FClear.7 mph20%29.77 "HgN/A
7:00 PM95 °FClear.8 mph18%29.77 "HgN/A
6:30 PM99 °FSunny.10 mph15%29.74 "HgN/A
6:00 PM99 °FSunny.12 mph16%29.74 "HgN/A
5:30 PM100 °FSunny.13 mph14%29.74 "HgN/A
5:00 PM100 °FSunny.10 mph14%29.74 "HgN/A
4:30 PM100 °FPassing clouds.14 mph15%29.74 "HgN/A
4:00 PM100 °FPassing clouds.6 mph15%29.74 "HgN/A
3:30 PM102 °FSunny.7 mph14%29.77 "Hg10 mi
3:00 PM100 °FPassing clouds.10 mph16%29.77 "HgN/A
2:30 PM100 °FPassing clouds.12 mph17%29.80 "HgN/A
2:00 PM99 °FPassing clouds.13 mph17%29.80 "HgN/A
1:30 PM99 °FSunny.7 mph18%29.83 "HgN/A
1:00 PM99 °FSunny.13 mph18%29.83 "Hg10 mi
12:30 PM95 °FSunny.13 mph22%29.86 "Hg10 mi
12:00 PM95 °FPassing clouds.9 mph22%29.86 "HgN/A
Weather by CustomWeather, © 2015

See weather overviewHow to use our weather pages